sat.trackr.live / text

‹ back to catalog

2025-234D

NORAD 66056 · 2025-234D

PAYLOAD ACTIVE UNKNOWN

§ Identity

Operator
Country
PRC
Launch date
2025-10-19
Launch site
JSC
Launch vehicle
Mass (kg)
RCS (m²)

External: N2YO · Heavens-Above · Gunter

§ Orbital elements

Epoch: 2026-05-25T04:17:57.386688Z

Period
94.65 min
Inclination
97.4254°
Eccentricity
0.0003745
Mean motion
15.21410953 rev/d
Perigee alt
499.0 km
Apogee alt
504.2 km
Semi-major
6,879.7 km
B*
5.7811e-4
RAAN
213.4111°
Arg perigee
146.7684°
Mean anomaly
213.3788°
Rev number
3,315

§ Raw data

2025-234D1 66056U 25234D   26145.17913642  .00012919  00000+0  57811-3 0  99962 66056  97.4254 213.4111 0003745 146.7684 213.3788 15.21410953 33159

JSON: /api/v1/satellites/66056 · /tle

For live sub-satellite position, see the globe view (requires WebGL).

§ Visibility from observer

Set your observer location to see the next 7 days of passes ≥ 10°. The values pass through the URL so the page stays shareable.

No JS? Fill the form by hand. The geolocation button needs JavaScript.